Total_Precipitation_Accumulation
0.93 0.93 0.81 0.80 0.81 0.79 0.77 0.80 0.89 0.96 1.05 1.11 1.14 1.18 1.21 1.29 1.35 1.46 1.61 1.76 1.79 1.80 1.70 1.73 1.83 1.90 2.06 2.09 2.05 2.01 1.99 1.92 1.79 1.70 1.46 1.23 1.22 1.31 1.38 1.30 1.33 1.33 1.16
1.01 0.92 0.83 0.85 0.86 0.90 0.88 0.84 0.87 0.91 0.92 1.01 1.12 1.11 1.10 1.15 1.24 1.35 1.44 1.50 1.61 1.58 1.49 1.50 1.61 1.67 1.81 1.93 2.02 1.93 1.94 1.89 1.89 1.84 1.61 1.38 1.31 1.33 1.39 1.37 1.28 1.26 1.24
1.01 1.00 0.90 0.79 0.80 0.85 0.86 0.80 0.77 0.81 0.85 0.97 1.10 1.22 1.13 1.03 1.13 1.22 1.27 1.30 1.32 1.27 1.26 1.31 1.36 1.42 1.55 1.66 1.76 1.85 1.86 1.79 1.89 1.89 1.68 1.44 1.32 1.30 1.34 1.32 1.29 1.35 1.25
1.08 1.02 0.97 0.90 0.91 0.84 0.75 0.72 0.73 0.72 0.69 0.75 0.89 1.00 1.05 1.01 0.98 0.99 1.02 1.18 1.18 1.09 1.02 1.02 1.04 1.06 1.18 1.31 1.42 1.57 1.74 1.86 1.94 1.97 1.82 1.53 1.35 1.32 1.37 1.43 1.43 1.37 1.38
1.15 1.11 1.02 0.95 0.86 0.78 0.70 0.61 0.62 0.55 0.54 0.62 0.79 0.95 1.01 1.01 1.02 1.02 0.96 1.00 1.06 1.08 1.02 0.91 0.83 0.83 0.93 1.02 1.11 1.37 1.57 1.74 1.89 1.95 1.87 1.69 1.51 1.42 1.37 1.37 1.47 1.58 1.58
0.97 0.99 1.02 0.98 0.81 0.72 0.63 0.54 0.50 0.49 0.50 0.53 0.63 0.79 0.94 0.91 1.07 1.11 1.02 0.94 0.95 0.96 0.96 0.95 0.94 0.89 0.77 0.74 0.80 0.97 1.21 1.42 1.61 1.74 1.77 1.63 1.46 1.42 1.46 1.47 1.46 1.53 1.59
0.80 0.82 0.86 0.85 0.70 0.64 0.53 0.45 0.45 0.45 0.48 0.49 0.56 0.69 0.83 0.97 0.99 0.88 0.95 0.95 0.92 0.93 0.91 0.90 0.93 0.93 0.97 0.87 0.81 0.80 0.83 1.01 1.26 1.47 1.50 1.46 1.52 1.44 1.40 1.36 1.34 1.34 1.36
0.66 0.68 0.66 0.66 0.62 0.54 0.44 0.41 0.41 0.43 0.47 0.48 0.50 0.56 0.64 0.82 0.87 0.78 0.96 0.98 0.99 0.98 0.96 0.97 1.01 1.04 1.01 1.12 1.09 1.00 0.93 0.92 1.01 0.97 1.07 1.35 1.46 1.47 1.46 1.48 1.51 1.42 1.36
0.45 0.53 0.57 0.58 0.54 0.49 0.43 0.48 0.51 0.50 0.49 0.46 0.45 0.47 0.50 0.58 0.67 0.65 0.79 0.93 1.03 1.03 0.93 0.92 0.98 1.02 1.21 1.25 1.17 1.15 1.07 1.01 1.15 1.16 1.17 1.24 1.31 1.31 1.32 1.41 1.47 1.42 1.36
0.29 0.36 0.43 0.49 0.52 0.53 0.63 0.69 0.69 0.64 0.57 0.49 0.45 0.43 0.46 0.48 0.60 0.49 0.61 0.78 0.95 1.07 1.00 0.94 1.09 1.06 1.08 1.03 1.00 1.19 1.17 1.06 0.97 0.93 0.95 1.00 1.01 1.07 1.15 1.18 1.33 1.35 1.29
0.15 0.21 0.31 0.46 0.53 0.61 0.72 0.75 0.71 0.63 0.55 0.51 0.47 0.43 0.43 0.51 0.64 0.58 0.64 0.74 0.87 0.98 1.00 1.01 0.97 1.05 0.88 0.84 0.89 1.04 1.20 1.14 1.09 1.11 1.03 0.97 0.95 0.95 0.91 0.97 1.12 1.22 1.25
0.15 0.19 0.27 0.38 0.49 0.62 0.70 0.67 0.67 0.66 0.59 0.53 0.52 0.49 0.49 0.59 0.66 0.66 0.67 0.73 0.80 0.88 0.88 0.78 0.77 0.84 0.70 0.66 0.65 0.79 0.97 1.01 1.01 1.07 1.04 0.97 0.92 0.88 0.86 0.86 0.95 1.03 1.07
0.15 0.14 0.17 0.25 0.38 0.55 0.61 0.62 0.62 0.64 0.62 0.58 0.53 0.50 0.50 0.56 0.66 0.76 0.66 0.59 0.58 0.66 0.69 0.67 0.59 0.56 0.55 0.51 0.54 0.64 0.72 0.87 1.00 1.03 0.92 0.85 0.86 0.89 0.90 0.88 0.84 0.87 0.90
0.14 0.15 0.14 0.14 0.17 0.25 0.33 0.40 0.47 0.52 0.53 0.53 0.51 0.51 0.53 0.53 0.52 0.58 0.60 0.56 0.51 0.50 0.48 0.40 0.38 0.41 0.47 0.49 0.49 0.51 0.58 0.80 0.98 0.97 0.88 0.82 0.84 0.88 0.95 0.98 0.95 0.89 0.89
0.14 0.14 0.14 0.16 0.17 0.18 0.19 0.24 0.29 0.32 0.39 0.45 0.44 0.46 0.46 0.48 0.47 0.50 0.51 0.52 0.57 0.60 0.61 0.52 0.45 0.43 0.43 0.46 0.49 0.54 0.66 0.77 0.88 0.84 0.83 0.81 0.82 0.89 0.93 0.99 1.05 1.02 0.95
0.14 0.13 0.12 0.12 0.14 0.15 0.16 0.18 0.21 0.22 0.27 0.29 0.30 0.29 0.27 0.33 0.40 0.41 0.42 0.44 0.47 0.55 0.61 0.62 0.61 0.60 0.59 0.58 0.56 0.53 0.54 0.63 0.71 0.78 0.79 0.80 0.80 0.81 0.82 0.86 0.94 0.99 0.97
0.13 0.13 0.11 0.10 0.12 0.14 0.15 0.18 0.20 0.19 0.16 0.15 0.17 0.20 0.21 0.22 0.23 0.27 0.33 0.39 0.41 0.46 0.52 0.54 0.54 0.54 0.55 0.54 0.51 0.49 0.47 0.47 0.54 0.65 0.76 0.83 0.86 0.85 0.84 0.81 0.79 0.83 0.82
0.13 0.16 0.15 0.15 0.17 0.15 0.16 0.21 0.24 0.25 0.20 0.13 0.12 0.14 0.16 0.18 0.17 0.16 0.18 0.24 0.25 0.27 0.34 0.40 0.40 0.40 0.41 0.42 0.40 0.38 0.38 0.41 0.43 0.47 0.58 0.71 0.86 0.96 0.98 0.95 0.90 0.88 0.88
0.13 0.14 0.16 0.20 0.20 0.21 0.23 0.26 0.25 0.24 0.21 0.17 0.14 0.13 0.14 0.15 0.17 0.18 0.16 0.15 0.15 0.16 0.19 0.23 0.25 0.27 0.30 0.30 0.31 0.32 0.33 0.36 0.40 0.43 0.46 0.51 0.63 0.79 0.91 0.96 1.02 1.10 1.07
0.16 0.17 0.17 0.17 0.20 0.23 0.24 0.23 0.22 0.21 0.19 0.16 0.15 0.14 0.15 0.16 0.15 0.15 0.16 0.17 0.18 0.18 0.18 0.20 0.21 0.22 0.26 0.29 0.29 0.30 0.31 0.33 0.36 0.40 0.42 0.47 0.55 0.64 0.74 0.83 0.89 0.95 1.01
0.15 0.17 0.18 0.16 0.16 0.17 0.17 0.17 0.18 0.16 0.15 0.13 0.11 0.11 0.13 0.16 0.17 0.16 0.16 0.17 0.19 0.19 0.19 0.20 0.21 0.23 0.25 0.30 0.38 0.41 0.38 0.36 0.39 0.44 0.49 0.53 0.56 0.61 0.65 0.74 0.80 0.85 0.91
0.15 0.15 0.14 0.14 0.16 0.16 0.15 0.16 0.16 0.18 0.17 0.15 0.14 0.12 0.14 0.16 0.17 0.17 0.16 0.15 0.17 0.18 0.19 0.21 0.22 0.22 0.24 0.28 0.38 0.49 0.54 0.50 0.47 0.49 0.56 0.60 0.62 0.64 0.68 0.74 0.81 0.87 0.90
0.13 0.15 0.15 0.15 0.15 0.16 0.17 0.17 0.17 0.17 0.17 0.18 0.19 0.18 0.18 0.18 0.17 0.16 0.16 0.17 0.19 0.20 0.22 0.23 0.23 0.23 0.25 0.30 0.35 0.41 0.47 0.53 0.57 0.62 0.65 0.67 0.69 0.70 0.73 0.76 0.78 0.85 0.89
0.11 0.12 0.15 0.18 0.18 0.19 0.20 0.20 0.19 0.17 0.17 0.18 0.18 0.19 0.19 0.19 0.18 0.17 0.17 0.18 0.20 0.21 0.24 0.26 0.27 0.27 0.28 0.32 0.35 0.38 0.42 0.46 0.48 0.51 0.58 0.67 0.69 0.71 0.76 0.77 0.77 0.80 0.86
0.10 0.11 0.14 0.17 0.18 0.19 0.21 0.23 0.25 0.21 0.19 0.18 0.18 0.18 0.19 0.20 0.20 0.18 0.18 0.20 0.22 0.24 0.25 0.26 0.26 0.29 0.33 0.34 0.35 0.40 0.51 0.55 0.52 0.52 0.55 0.62 0.66 0.69 0.76 0.82 0.89 0.92 0.92
0.13 0.13 0.14 0.15 0.17 0.19 0.22 0.25 0.28 0.28 0.25 0.21 0.20 0.22 0.23 0.23 0.23 0.23 0.23 0.24 0.25 0.27 0.28 0.30 0.32 0.33 0.35 0.38 0.39 0.44 0.51 0.50 0.52 0.57 0.59 0.60 0.65 0.69 0.76 0.86 0.91 0.97 1.01